Location: アルンシュタイン
(50.0000°N, 10.0000°E)
Time: 16:59:19
(UTC+02:00)

Vanguard 1 - Pass Details

Date: 12 September 2024
Orbit: 649 x 3825 km, 34.3° (Epoch: 02 October)

Event Time Altitude Azimuth Distance (km) Brightness Sun altitude
Rises 14:21:19 0° 221° (SW) 5,480 14.6 41.9°
Reaches altitude 10° 14:27:10 10° 203° (SSW) 3,789 14.2 41.5°
Maximum altitude 14:32:06 16° 170° (S) 2,779 13.3 41.1°
Drops below altitude 10° 14:35:55 10° 135° (SE) 2,774 12.7 40.9°
Sets 14:39:10 0° 112° (ESE) 3,395 12.8 40.6°
